Weather Roundup
Issued by NWS Chicago, IL

Home | Current Version | Previous Version | Text Only | Print | Product List | Glossary On
Versions: 1 2 3 4 5 6 7 8 9 10 11 12 13 14 15 16 17 18 19 20 21 22 23 24 25 26 27 28 29 30 31 32 33 34 35 36 37 38 39 40 41 42 43 44 45 46 47 48 49 50
000
NZUS59 KLOT 181610
HRRLOT

CHICAGO AREA WEATHER ROUNDUP
NATIONAL WEATHER SERVICE CHICAGO/ROMEOVILLE IL
1100 AM CDT THU SEP 18 2014

NOTE: "FAIR" INDICATES FEW OR NO CLOUDS BELOW 12,000 FEET WITH NO
SIGNIFICANT WEATHER AND/OR OBSTRUCTIONS TO VISIBILITY.

* THESE STATIONS ARE NOT UNDER NWS QUALITY CONTROL. THEY ALSO MAY NOT
  REPORT WEATHER SUCH AS PRECIPITATION OR FOG.

ILZ005-006-012>014-019>023-181700-
NORTHEAST ILLINOIS

CITY           SKY/WX    TMP DP  RH WIND       PRES   REMARKS
OHARE          PTSUNNY   67  55  65 NE9       30.15S
MIDWAY         MOSUNNY   68  54  60 VRB3      30.15S
AURORA         PTSUNNY   62  55  77 E9        30.16F
LANSING*       SUNNY     65  49  55 E6        30.15S
JOLIET*        SUNNY     65  48  53 SE5       30.15F
WAUKEGAN       CLOUDY    59  53  80 NE7       30.17R
DUPAGE AIRPORT PTSUNNY   64  55  72 NE6       30.15F
WHEELING       CLOUDY    64  54  69 E6        30.18R
KANKAKEE*      SUNNY     65  50  59 NE7       30.14F
MORRIS*        SUNNY     67  51  56 SE3       30.14S
LEWIS AIRPORT* SUNNY     65  52  60 E5        30.15S
NORTHERLY IS     N/A     63  57  81 NE7         N/A
$$

WIZ051-052-058>065-066-070>072-181700-
SOUTHEAST WISCONSIN

CITY           SKY/WX    TMP DP  RH WIND       PRES   REMARKS
MILWAUKEE      CLOUDY    56  50  80 N13       30.19R
KENOSHA*       CLOUDY    60  54  80 VRB5      30.18R
RACINE*        CLOUDY    58  52  80 N15       30.19R
BURLINGTON     CLOUDY    56  51  82 NE6       30.18R
WAUKESHA       CLOUDY    54  48  82 N3        30.19S
WEST BEND      CLOUDY    52  45  76 N3        30.20R
$$

INZ001>003-010>013-019-020-181700-
NORTHWEST INDIANA

CITY           SKY/WX    TMP DP  RH WIND       PRES   REMARKS
GARY*          MOSUNNY   66  48  52 NE9       30.15F
MICHIGAN CITY* NOT AVBL
RENSSELAER*    NOT AVBL
VALPARAISO     SUNNY     65  46  50 E8        30.15F
$$

LMZ740>746-181700-
SOUTHERN LAKE MICHIGAN

STATION/POSITION TIME  SKY/WX   TEMP WIND        PRES    VSBY
                                AIR  DIR/SP/G
                 (UTC)          (F)  (DEG/KT/KT) (MB)    (MI)
HARRISON CRIB    1600            61   20/  5/  5   N/A
BURNHAM HARBOR   1600            63   30/  5/  7   N/A
CALUMET HARBOR   1600            62   50/  6/  9 1019.8R
BURNS HARBOR     NOT AVBL
MICHIGAN CITY    1600            63   80/  5/  7   N/A
$$

ABBREVIATIONS USED IN REMARKS
   TC - TEMPERATURE IN CELSIUS
  WCI - WIND CHILL INDEX
   HX - HEAT INDEX
  VSB - VISIBILITY
$$


USA.gov is the U.S. government's official web portal to all federal, state and local government web resources and services.